Back to catalog

STARLINK-11422

AliveCommunicationsVLEO
NORAD 61944·PAYLOAD·🇺🇸 United States

Launched Nov 14, 2024 from Vandenberg Space Force Base

Loading…

Next Passes (next 24 hours)

TLE

FreshSource: CelesTrak SupGP

Epoch: Sep 14, 2026, 21:21 UTC

1 61944C 24209F   26257.89006944 -.00039734  00000+0 -32721-3 0  2575
2 61944  53.1571 158.7996 0001098  92.2215 168.8918 15.69736499    13

Track STARLINK-11422 in real time with AllMySat

Download on the App Store